Location: Newark
(44.2700°N, 7.5000°E)
Time: 10:59:54
(UTC+00:00)

N. Korean satellite - Visible Passes

Search period start: 20 September 2020 00:00
Search period end: 30 September 2020 00:00
Orbit: 455 x 503 km, 97.2° (Epoch: 19 September)

Date Brightness Start Highest point End Pass type
(mag) Time Alt. Az. Time Alt. Az. Time Alt. Az.
20 Sep 9.3 04:24:32 10° NE 04:27:35 24° E 04:30:35 10° SSE visible
21 Sep 10.1 03:59:49 10° ENE 04:01:22 12° E 04:02:54 10° ESE visible
23 Sep 8.4 04:39:33 10° NNE 04:42:59 36° E 04:46:20 10° SSE visible
24 Sep 9.7 04:14:13 10° NE 04:16:49 18° E 04:19:23 10° SE visible
27 Sep 9.0 04:29:04 10° NE 04:32:14 27° E 04:35:18 10° SSE visible
28 Sep 9.9 04:04:06 10° ENE 04:06:00 14° E 04:07:53 10° ESE visible
